When you browse on this site, cookies collect data to enhance your experience and personalize the content and advertising you see.
Visit our Privacy Policy to learn more. By continuing to use the site, you agree to this use of cookies and data.

Météo par heure à Hamove

Ce jour, 11 Août, Mardi

Heure Température Précipitation Vent Pression Humidité
00:00 +24°C° 0 mm 2 m/s 754 mmHg 55%
01:00 +23°C° 0 mm 2 m/s 754 mmHg 57%
02:00 +23°C° 0 mm 2 m/s 754 mmHg 59%
03:00 +21°C° 0 mm 2 m/s 754 mmHg 62%
04:00 +21°C° 0 mm 2 m/s 754 mmHg 64%
05:00 +20°C° 0 mm 3 m/s 754 mmHg 67%
06:00 +22°C° 0 mm 3 m/s 754 mmHg 61%
07:00 +25°C° 0 mm 3 m/s 754 mmHg 56%
08:00 +27°C° 0 mm 3 m/s 754 mmHg 50%
09:00 +28°C° 0 mm 3 m/s 754 mmHg 45%
10:00 +30°C° 0 mm 3 m/s 754 mmHg 40%
11:00 +31°C° 0 mm 3 m/s 754 mmHg 35%
12:00 +31°C° 0 mm 3 m/s 754 mmHg 35%
13:00 +31°C° 0 mm 3 m/s 754 mmHg 35%
14:00 +31°C° 0 mm 2 m/s 753 mmHg 35%
15:00 +31°C° 0 mm 3 m/s 753 mmHg 35%
16:00 +31°C° 0 mm 3 m/s 753 mmHg 36%
17:00 +31°C° 0 mm 3 m/s 753 mmHg 36%
18:00 +29°C° 0.1 mm 3 m/s 753 mmHg 40%
19:00 +28°C° 0.1 mm 2 m/s 753 mmHg 45%
20:00 +26°C° 0.1 mm 1 m/s 753 mmHg 49%
21:00 +26°C° 0 mm 1 m/s 753 mmHg 50%
22:00 +26°C° 0 mm 1 m/s 753 mmHg 51%
23:00 +25°C° 0 mm 1 m/s 753 mmHg 52%

Demain, 12 Août, Mercredi

Heure Température Précipitation Vent Pression Humidité
00:00 +25°C° 0 mm 1 m/s 753 mmHg 54%
01:00 +24°C° 0 mm 1 m/s 753 mmHg 56%
02:00 +23°C° 0 mm 1 m/s 753 mmHg 59%
03:00 +23°C° 0 mm 2 m/s 753 mmHg 61%
04:00 +21°C° 0 mm 2 m/s 753 mmHg 64%
05:00 +21°C° 0 mm 3 m/s 753 mmHg 67%
06:00 +24°C° 0 mm 3 m/s 753 mmHg 63%
07:00 +25°C° 0 mm 3 m/s 753 mmHg 59%
08:00 +27°C° 0 mm 4 m/s 753 mmHg 55%
09:00 +28°C° 0 mm 4 m/s 753 mmHg 50%
10:00 +29°C° 0 mm 4 m/s 753 mmHg 46%
11:00 +30°C° 0 mm 4 m/s 753 mmHg 41%
12:00 +32°C° 0 mm 4 m/s 753 mmHg 39%
13:00 +32°C° 0 mm 5 m/s 753 mmHg 36%
14:00 +32°C° 0 mm 5 m/s 753 mmHg 34%
15:00 +32°C° 0 mm 5 m/s 753 mmHg 34%
16:00 +30°C° 0 mm 6 m/s 753 mmHg 35%
17:00 +30°C° 0 mm 6 m/s 753 mmHg 36%
18:00 +28°C° 0 mm 6 m/s 754 mmHg 40%
19:00 +26°C° 0 mm 6 m/s 754 mmHg 44%
20:00 +24°C° 0 mm 6 m/s 754 mmHg 48%
21:00 +22°C° 0 mm 6 m/s 755 mmHg 49%
22:00 +21°C° 0 mm 5 m/s 755 mmHg 50%
23:00 +20°C° 0 mm 5 m/s 755 mmHg 52%

Après-demain, 13 Août, Jeudi

Heure Température Précipitation Vent Pression Humidité
00:00 +19°C° 0 mm 5 m/s 756 mmHg 55%
01:00 +18°C° 0 mm 4 m/s 756 mmHg 58%
02:00 +17°C° 0 mm 3 m/s 756 mmHg 62%
03:00 +16°C° 0 mm 3 m/s 756 mmHg 66%
04:00 +16°C° 0 mm 3 m/s 756 mmHg 70%
05:00 +14°C° 0 mm 3 m/s 756 mmHg 75%
06:00 +17°C° 0 mm 4 m/s 757 mmHg 68%
07:00 +18°C° 0 mm 4 m/s 757 mmHg 61%
08:00 +20°C° 0 mm 4 m/s 757 mmHg 54%
09:00 +21°C° 0 mm 4 m/s 757 mmHg 48%
10:00 +23°C° 0 mm 4 m/s 757 mmHg 43%
11:00 +25°C° 0 mm 4 m/s 757 mmHg 37%
12:00 +26°C° 0 mm 4 m/s 756 mmHg 35%
13:00 +27°C° 0 mm 4 m/s 756 mmHg 32%
14:00 +28°C° 0 mm 4 m/s 756 mmHg 30%
15:00 +28°C° 0 mm 4 m/s 755 mmHg 30%
16:00 +28°C° 0 mm 4 m/s 755 mmHg 30%
17:00 +28°C° 0 mm 5 m/s 755 mmHg 30%
18:00 +26°C° 0 mm 4 m/s 755 mmHg 35%
19:00 +23°C° 0 mm 4 m/s 755 mmHg 39%
20:00 +21°C° 0 mm 3 m/s 756 mmHg 44%
21:00 +20°C° 0 mm 3 m/s 756 mmHg 47%
22:00 +20°C° 0 mm 3 m/s 756 mmHg 50%
23:00 +19°C° 0 mm 3 m/s 756 mmHg 52%

14 Août, Vendredi

Heure Température Précipitation Vent Pression Humidité
00:00 +18°C° 0 mm 3 m/s 756 mmHg 54%
01:00 +18°C° 0 mm 2 m/s 756 mmHg 56%
02:00 +17°C° 0 mm 2 m/s 756 mmHg 58%
03:00 +17°C° 0 mm 2 m/s 756 mmHg 60%
04:00 +16°C° 0 mm 3 m/s 756 mmHg 62%
05:00 +16°C° 0 mm 3 m/s 756 mmHg 64%
06:00 +18°C° 0 mm 3 m/s 756 mmHg 59%
07:00 +19°C° 0 mm 3 m/s 756 mmHg 54%
08:00 +21°C° 0 mm 3 m/s 756 mmHg 48%
09:00 +22°C° 0 mm 4 m/s 756 mmHg 45%
10:00 +25°C° 0 mm 4 m/s 756 mmHg 41%
11:00 +26°C° 0 mm 4 m/s 756 mmHg 38%
12:00 +27°C° 0 mm 4 m/s 756 mmHg 34%
13:00 +27°C° 0 mm 4 m/s 756 mmHg 31%
14:00 +28°C° 0 mm 4 m/s 755 mmHg 28%
15:00 +28°C° 0 mm 5 m/s 755 mmHg 28%
16:00 +27°C° 0 mm 5 m/s 755 mmHg 28%
17:00 +27°C° 0 mm 5 m/s 755 mmHg 28%
18:00 +25°C° 0 mm 4 m/s 755 mmHg 33%
19:00 +22°C° 0 mm 4 m/s 756 mmHg 38%
20:00 +21°C° 0 mm 3 m/s 756 mmHg 43%
21:00 +20°C° 0 mm 3 m/s 756 mmHg 46%
22:00 +19°C° 0 mm 3 m/s 756 mmHg 49%
23:00 +18°C° 0 mm 3 m/s 756 mmHg 52%

15 Août, Samedi

Heure Température Précipitation Vent Pression Humidité
00:00 +17°C° 0 mm 3 m/s 756 mmHg 54%
01:00 +17°C° 0 mm 3 m/s 756 mmHg 55%
02:00 +16°C° 0 mm 2 m/s 756 mmHg 56%
03:00 +16°C° 0 mm 2 m/s 756 mmHg 57%
04:00 +15°C° 0 mm 2 m/s 756 mmHg 58%
05:00 +14°C° 0 mm 3 m/s 756 mmHg 60%
06:00 +17°C° 0 mm 3 m/s 756 mmHg 54%
07:00 +19°C° 0 mm 3 m/s 756 mmHg 48%
08:00 +21°C° 0 mm 3 m/s 757 mmHg 42%
09:00 +22°C° 0 mm 3 m/s 756 mmHg 38%
10:00 +24°C° 0 mm 3 m/s 756 mmHg 35%
11:00 +26°C° 0 mm 3 m/s 756 mmHg 31%
12:00 +26°C° 0 mm 3 m/s 756 mmHg 29%
13:00 +27°C° 0 mm 3 m/s 756 mmHg 27%
14:00 +28°C° 0 mm 3 m/s 755 mmHg 25%
15:00 +28°C° 0 mm 3 m/s 755 mmHg 25%
16:00 +28°C° 0 mm 3 m/s 755 mmHg 25%
17:00 +28°C° 0 mm 3 m/s 755 mmHg 25%
18:00 +26°C° 0 mm 3 m/s 755 mmHg 28%
19:00 +24°C° 0 mm 3 m/s 754 mmHg 31%
20:00 +21°C° 0 mm 3 m/s 754 mmHg 35%
21:00 +20°C° 0 mm 3 m/s 755 mmHg 37%
22:00 +20°C° 0 mm 3 m/s 755 mmHg 40%
23:00 +19°C° 0 mm 2 m/s 755 mmHg 42%

16 Août, Dimanche

Heure Température Précipitation Vent Pression Humidité
00:00 +18°C° 0 mm 2 m/s 755 mmHg 43%
01:00 +18°C° 0 mm 2 m/s 755 mmHg 45%
02:00 +18°C° 0 mm 2 m/s 755 mmHg 46%
03:00 +17°C° 0 mm 2 m/s 754 mmHg 47%
04:00 +17°C° 0 mm 2 m/s 754 mmHg 48%
05:00 +16°C° 0 mm 3 m/s 754 mmHg 49%
06:00 +18°C° 0 mm 3 m/s 754 mmHg 44%
07:00 +20°C° 0 mm 3 m/s 754 mmHg 39%
08:00 +24°C° 0 mm 3 m/s 754 mmHg 34%
09:00 +25°C° 0 mm 3 m/s 754 mmHg 31%
10:00 +26°C° 0 mm 3 m/s 754 mmHg 28%
11:00 +27°C° 0 mm 3 m/s 754 mmHg 25%
12:00 +28°C° 0 mm 2 m/s 754 mmHg 24%
13:00 +29°C° 0 mm 2 m/s 754 mmHg 23%
14:00 +29°C° 0 mm 2 m/s 753 mmHg 22%
15:00 +29°C° 0 mm 2 m/s 753 mmHg 22%
16:00 +29°C° 0 mm 2 m/s 753 mmHg 22%
17:00 +29°C° 0 mm 2 m/s 753 mmHg 22%
18:00 +28°C° 0 mm 2 m/s 753 mmHg 25%
19:00 +26°C° 0 mm 2 m/s 753 mmHg 28%
20:00 +24°C° 0 mm 2 m/s 753 mmHg 31%
21:00 +24°C° 0 mm 2 m/s 753 mmHg 33%
22:00 +23°C° 0 mm 2 m/s 753 mmHg 34%
23:00 +21°C° 0 mm 2 m/s 753 mmHg 36%
Voir plus